Tracking 19245 objects as of 17-Aug-2018
HD Live streaming from Space Station
objects crossing your sky now

COSMOS 1053

Track COSMOS 1053 now!
10-day predictions
COSMOS 1053 is classified as:


NORAD ID: 11130
Int'l Code: 1978-109C
Perigee: 1,436.1 km
Apogee: 1,495.1 km
Inclination: 74.0 °
Period: 115.1 minutes
Semi major axis: 7836 km
RCS: 0.7062 m2 (medium)
Launch date: December 5, 1978
Source: Commonwealth of Independent States (former USSR) (CIS)
Launch site: PLESETSK MISSILE AND SPACE COMPLEX (PKMTR)
aabbcc
Your satellite tracking list
Your tracking list is empty




NASA's NSSDC Master Catalog

Two Line Element Set (TLE):
1 11130U 78109C   18229.35536497 -.00000014  00000-0  11424-4 0  9997
2 11130  74.0153 103.2171 0037645 249.9732 159.4575 12.51452556813783
Source of the keplerian elements: AFSPC